一网星座-0346星 (ONEWEB-0346 )

导读

ONEWEB-0346是英国一网公司(OneWeb)星座中的一颗低轨通信卫星,于2021年9月14日发射入轨,运行在约1200公里高度的近地轨道。它属于OneWeb一期组网卫星,单星重约147.5kg,配备Ku/Ka波段通信载荷,采用氙气电推进,设计寿命约5年。卫星遵循空间碎片减缓规范,失效后会主动离轨在大气层焚毁,为全球偏远地区提供低延迟宽带接入服务,支撑OneWeb实现全球通信覆盖。

基本信息
目录编号:
49212
目录名称:
ONEWEB-0346
国际标识:
2021-083AC
轨道中心:
EARTH
卫星名称:
一网星座-0346星
卫星全名:
一网星座-0346星 (ONEWEB-0346 )
卫星状态:
在轨 (已飞行1734 天)
发射日期:
2021-09-14 UTC
国别 :
英国 (GB)
星等 :
--
轨道信息
数据来源 国际轨道数据
星历时间: 2026-06-14T05:11:00+0800
14小时前
查看轨道信息
半长轴: 7567.882km
偏心率: 0.0002389
轨道倾角: 87.916°
近地点辐角 82.010°
升交点赤经 336.115°
平近点角 278.130°
近地点: 1187.937km
远地点: 1191.553km
周期: 109.200分钟
每日圈数: 13.186856
详细信息
平衡模式:
三轴稳定
覆盖范围:
全球
运营商:
一网卫星公司
运营商所在国:
英国
制造商(研发单位):
一网卫星公司
制造商所在国:
英国
使用方式:
暂无
卫星简介
OneWeb卫星网络由648颗重约125公斤的微型卫星组成,运行在1200公里的轨道上。 每颗卫星都能够提供至少每秒8千兆位的吞吐量,以使用其高吞吐量的Ku频段有效载荷为家庭和移动平台提供互联网接入。该卫星仍在工作。
2D轨道图
3D轨道图
轨道高度分析图
轨道倾角分析图
轨道综合分析图
查看轨道综合分析图